User: anonymous   Login
Location: Estes Park
(40.3770°N, 105.5210°W)
Time: 19:25:09
(UTC-07:00)
Language:

N. Korean satellite - Orbit

View from above orbital plane
View from above orbital plane
View from above satellite
View from above satellite

Ground track
Ground track

The orbit data is extracted from the following two-line orbital elements,

1 39026U 12072A   17343.96804401 +.00001406 +00000-0 +56125-4 0  9996
2 39026 097.2164 355.8014 0038143 274.6693 085.0191 15.26172271276736
Epoch (UTC): 09 December 2017 23:13:59
Eccentricity: 0.0038143
inclination: 97.2164°
perigee height: 461 km
apogee height: 513 km
right ascension of ascending node: 355.8014°
argument of perigee: 274.6693°
revolutions per day: 15.26172271
mean anomaly at epoch: 85.0191°
orbit number at epoch: 27673

The dashed part of the orbit path shows where the satellite is in the earth's shadow,  

DLR